Weather History for Prestwick, United Kingdom

Change the Weather History Date:

Thursday, November 17, 2011

  Actual Average Record
Temperature  
Mean Temperature 50 °F -  
Max Temperature 55 °F 46 °F 59 °F (1997)
Min Temperature 44 °F 36 °F 26 °F (2005)
Degree Days  
Heating Degree Days 16    
Moisture  
Dew Point 47 °F    
Average Humidity 86    
Maximum Humidity 94    
Minimum Humidity 82    
Precipitation  
Precipitation 0.00 in - - ()
Sea Level Pressure  
Sea Level Pressure 29.76 in    
Wind  
Wind Speed 12 mph ()    
Max Wind Speed 28 mph    
Max Gust Speed 41 mph    
Visibility 5.4 miles    
Events Rain    
Averages and records for this station are not official NWS values.
T = Trace of Precipitation, MM = Missing Value Source: Averaged Metar Reports

Daily Weather History Graph

Daily Weather History Graph

Search for Another Location

Airport:

Trip Planner

Search our weather history database for the weather conditions in past years. The results will help you decide how hot, cold, wet, or windy it might be!

Date:

Astronomy

Nov. 17, 2011 Rise Set
Actual Time 7:55 AM GMT 4:10 PM GMT
Civil Twilight 7:13 AM GMT 4:51 PM GMT
Nautical Twilight 6:28 AM GMT 5:37 PM GMT
Astronomical Twilight 5:45 AM GMT 6:20 PM GMT
Moon 10:35 PM GMT (11/17) 12:41 PM GMT (11/17)
Length of Visible Light 9h 38m
Length of Day
8h 14m
Waning Gibbous, 62% of the Moon is Illuminated
Nov 17
Waning Gibbous
Nov 18
Last Quarter
Nov 25
New
Dec 2
First Quarter
Dec 10
Full

Hourly Weather History & Observations

Time (GMT) Temp. Windchill Dew Point Humidity Pressure Visibility Wind Dir Wind Speed Gust Speed Precip Events Conditions
12:20 AM 44.6 °F - 41.0 °F 87% 29.86 in 5.0 mi Calm Calm - N/A   Mostly Cloudy
12:50 AM 44.6 °F - 41.0 °F 87% 29.86 in 4.3 mi Calm Calm - N/A Rain Light Rain
2:20 AM 46.4 °F 40.1 °F 42.8 °F 87% 29.80 in 4.3 mi SE 15.0 mph - N/A Rain Light Rain
2:50 AM 46.4 °F 40.7 °F 42.8 °F 87% 29.80 in 4.3 mi SE 12.7 mph - N/A Rain Light Rain
3:50 AM 48.2 °F - 42.8 °F 82% 29.80 in 4.3 mi SE 12.7 mph - N/A Rain Light Rain
4:20 AM 48.2 °F - 42.8 °F 82% 29.80 in 4.3 mi SE 16.1 mph - N/A   Mostly Cloudy
4:50 AM 48.2 °F - 44.6 °F 87% 29.80 in 4.3 mi SE 11.5 mph - N/A   Mostly Cloudy
5:20 AM 48.2 °F - 44.6 °F 87% 29.80 in 4.3 mi ESE 9.2 mph - N/A   Mostly Cloudy
5:50 AM 48.2 °F - 44.6 °F 87% 29.80 in 4.3 mi ESE 5.8 mph - N/A   Mostly Cloudy
6:20 AM 50.0 °F - 46.4 °F 87% 29.80 in 4.3 mi South 6.9 mph - N/A   Mostly Cloudy
6:50 AM 50.0 °F - 46.4 °F 87% 29.83 in 4.3 mi SSW 11.5 mph - N/A   Mostly Cloudy
7:20 AM 48.2 °F - 44.6 °F 87% 29.83 in 6.2 mi SSW 11.5 mph - N/A   Partly Cloudy
7:50 AM 48.2 °F - 42.8 °F 82% 29.83 in 6.2 mi South 8.1 mph - N/A   Partly Cloudy
8:20 AM 44.6 °F 39.7 °F 41.0 °F 87% 29.86 in 6.2 mi South 9.2 mph - N/A   Partly Cloudy
8:50 AM 44.6 °F 39.7 °F 41.0 °F 87% 29.86 in 6.2 mi SSE 9.2 mph - N/A   Partly Cloudy
9:20 AM 46.4 °F 42.4 °F 42.8 °F 87% 29.86 in 6.2 mi SSE 8.1 mph - N/A   Partly Cloudy
9:50 AM 48.2 °F - 44.6 °F 87% 29.86 in 6.2 mi SSE 9.2 mph - N/A   Partly Cloudy
10:20 AM 50.0 °F - 44.6 °F 82% 29.86 in 6.2 mi SSE 10.4 mph - N/A   Partly Cloudy
10:50 AM 51.8 °F - 46.4 °F 82% 29.86 in 6.2 mi South 10.4 mph - N/A   Partly Cloudy
11:20 AM 51.8 °F - 46.4 °F 82% 29.83 in 6.2 mi SSE 6.9 mph - N/A   Partly Cloudy
11:50 AM 51.8 °F - 46.4 °F 82% 29.83 in 6.2 mi SSE 10.4 mph - N/A   Scattered Clouds
12:20 PM 51.8 °F - 46.4 °F 82% 29.83 in 6.2 mi South 10.4 mph - N/A   Scattered Clouds
12:50 PM 51.8 °F - 48.2 °F 88% 29.80 in 6.2 mi SSE 11.5 mph - N/A Rain Light Rain
1:20 PM 51.8 °F - 48.2 °F 88% 29.80 in 6.2 mi SSE 12.7 mph - N/A   Mostly Cloudy
1:50 PM 51.8 °F - 46.4 °F 82% 29.77 in 6.2 mi SSE 16.1 mph - N/A Rain Light Rain
2:20 PM 51.8 °F - 46.4 °F 82% 29.77 in 6.2 mi SSE 19.6 mph - N/A Rain Light Rain
2:50 PM 51.8 °F - 46.4 °F 82% 29.74 in 6.2 mi SSE 21.9 mph 33.4 mph N/A Rain Light Rain
3:20 PM 51.8 °F - 46.4 °F 82% 29.71 in 6.2 mi SSE 17.3 mph - N/A Rain Light Rain
3:50 PM 51.8 °F - 46.4 °F 82% 29.71 in 5.6 mi SSE 20.7 mph 33.4 mph N/A Rain Light Rain
4:20 PM 51.8 °F - 48.2 °F 88% 29.68 in 5.6 mi SSE 21.9 mph - N/A Rain Light Rain
4:50 PM 53.6 °F - 48.2 °F 82% 29.65 in 5.6 mi SSE 24.2 mph 36.8 mph N/A Rain Light Rain
5:20 PM 53.6 °F - 48.2 °F 82% 29.65 in 5.6 mi SSE 25.3 mph 36.8 mph N/A Rain Light Rain
5:50 PM 53.6 °F - 50.0 °F 88% 29.65 in 5.0 mi SSE 27.6 mph 41.4 mph N/A Rain Light Rain
6:20 PM 53.6 °F - 50.0 °F 88% 29.65 in 5.0 mi SSE 27.6 mph - N/A Rain Light Rain
6:50 PM 53.6 °F - 50.0 °F 88% 29.65 in 5.0 mi SSE 23.0 mph - N/A Rain Light Rain
7:20 PM 53.6 °F - 50.0 °F 88% 29.65 in 5.0 mi SSE 20.7 mph - N/A Rain Light Rain
7:50 PM 53.6 °F - 50.0 °F 88% 29.65 in 5.0 mi South 24.2 mph 36.8 mph N/A Rain Light Rain
8:20 PM 55.4 °F - 50.0 °F 82% 29.65 in 5.0 mi South 23.0 mph - N/A Rain Light Rain
8:50 PM 53.6 °F - 51.8 °F 94% 29.65 in 5.0 mi South 24.2 mph - N/A Rain Rain
9:20 PM 55.4 °F - 51.8 °F 88% 29.65 in 5.0 mi South 24.2 mph 35.7 mph N/A Rain Light Rain
9:50 PM 55.4 °F - 51.8 °F 88% 29.68 in 5.0 mi South 25.3 mph - N/A Rain Light Rain
10:20 PM 55.4 °F - 51.8 °F 88% 29.65 in 5.0 mi South 26.5 mph 40.3 mph N/A Rain Light Rain
10:50 PM 55.4 °F - 51.8 °F 88% 29.65 in 5.0 mi South 23.0 mph - N/A Rain Light Rain
11:20 PM 55.4 °F - 51.8 °F 88% 29.68 in 5.0 mi South 23.0 mph - N/A Rain Light Rain
11:50 PM 55.4 °F - 51.8 °F 88% 29.68 in 5.0 mi South 24.2 mph - N/A Rain Light Rain